[[{"header":{"parameterUnit":"m.s-1","parameterCategory":1,"la1":30.2991,"la2":30.254,"lo1":-89.0895,"lo2":-89.0444,"dy":0.0017,"dx":0.0017,"nx":28,"ny":28,"refTime":"2025-04-06T09:00:00:Z","depth":0,"parameterNumber":2,"parameterNumberName":"U-component_of_WINDS"},"data":[0,0,0,0,0,0,0,0,0,0,0,0,0,0,0,0,0,0,0,0,0,0,0,0,0,0,0,0,0,0,0,0,0,0,0,0,0,0,0,0,0,0,0,0,0,0,0,0,0,0,0,0,0,0,0,0,0,0,-3.6685,-3.6686,0,-3.6766,-3.6767,-3.6768,-3.6801,-3.6801,-3.6801,-3.6801,-3.6885,-3.6887,-3.6889,0,0,0,0,0,0,0,0,0,0,0,0,0,-3.6561,-3.6563,-3.6685,-3.6686,-3.6687,-3.6766,-3.6767,-3.6768,-3.6801,-3.6801,-3.6801,-3.6801,-3.6884,-3.6887,-3.689,0,0,0,0,0,0,0,0,0,0,0,0,0,-3.6626,-3.6564,-3.6685,-3.6713,-3.6716,-3.6765,-3.6767,-3.6768,-3.6801,-3.6801,-3.6801,-3.6801,-3.6883,-3.6886,-3.689,-3.6917,0,0,-3.6901,-3.6902,0,0,0,0,0,0,0,0,-3.6622,-3.663,-3.6708,-3.6711,-3.6715,-3.6773,-3.6754,-3.6818,-3.6801,-3.6769,-3.6801,-3.6801,-3.6848,-3.6854,-3.687,-3.6921,-3.6925,-3.6901,-3.6903,-3.6905,-3.6906,0,0,0,0,0,0,0,-3.6618,-3.6627,-3.6717,-3.6709,-3.6713,-3.6722,-3.6731,-3.6766,-3.6809,-3.6772,-3.6775,-3.6784,-3.685,-3.6866,-3.6872,-3.6926,-3.6901,-3.6904,-3.6906,-3.6908,-3.7005,-3.7005,0,0,0,0,0,0,-3.6608,-3.6623,-3.6714,-3.6719,-3.6667,-3.6725,-3.6735,-3.6755,-3.6809,-3.6817,-3.6784,-3.6785,-3.6861,-3.6868,-3.6875,-3.6911,-3.6905,-3.6908,-3.691,-3.7004,-3.7005,-3.7005,0,0,0,0,0,0,-3.6606,-3.6616,-3.6711,-3.6672,-3.6685,-3.6727,-3.6749,-3.6757,-3.6773,-3.6818,-3.6825,-3.6793,-3.6861,-3.687,-3.6907,-3.6915,-3.691,-3.6913,-3.7004,-3.7004,-3.7005,-3.6983,0,0,0,0,0,0,-3.6602,-3.6615,-3.6625,-3.6672,-3.6687,-3.674,-3.675,-3.6758,-3.6779,-3.6781,-3.6828,-3.6836,-3.6861,-3.6901,-3.691,-3.6919,-3.6916,-3.7003,-3.7004,-3.7005,-3.6983,-3.6982,-3.6982,0,0,0,0,0,-3.6597,-3.6616,-3.6625,-3.6636,-3.67,-3.6741,-3.6749,-3.6778,-3.678,-3.6791,-3.6819,-3.6834,-3.6912,-3.6905,-3.6915,-3.6925,-3.7003,-3.7004,-3.7005,-3.6983,-3.6983,-3.6982,0,0,0,0,0,0,-3.6568,-3.6622,-3.6634,-3.6667,-3.6699,-3.6746,-3.6761,-3.6776,-3.6808,-3.6809,-3.6844,-3.6854,-3.6887,-3.691,-3.6901,-3.6955,-3.6959,-3.6962,-3.6939,-3.6939,-3.6938,-3.6932,-3.6919,0,0,0,0,0,-3.6566,-3.6594,-3.664,-3.6665,-3.668,-3.6718,-3.6736,-3.6756,-3.679,-3.6804,-3.6835,-3.6869,-3.6901,-3.6921,-3.6953,-3.6987,-3.6998,-3.6999,-3.6999,-3.6998,-3.7,-3.7021,-3.7022,-3.7008,-3.7008,-3.7008,0,0,-3.6561,-3.6594,-3.6609,-3.666,-3.6687,-3.6716,-3.6729,-3.6758,-3.678,-3.6809,-3.6845,-3.6869,-3.6909,-3.6944,-3.6961,-3.6964,-3.7007,-3.7,-3.6999,-3.7001,-3.7022,-3.7023,-3.7024,-3.7009,-3.7009,-3.7009,0,0,-3.6567,-3.6594,-3.6619,-3.6646,-3.6686,-3.6711,-3.6717,-3.6763,-3.678,-3.6817,-3.6839,-3.6866,-3.692,-3.6948,-3.6969,-3.6987,-3.7002,-3.6997,-3.6994,-3.7014,-3.7015,-3.7016,-3.7023,-3.7025,-3.6999,-3.6999,-3.6999,0,-3.6556,-3.6599,-3.663,-3.6658,-3.668,-3.6708,-3.6733,-3.6758,-3.6807,-3.6822,-3.6825,-3.6895,-3.6923,-3.6966,-3.697,-3.6986,-3.6995,-3.6991,-3.7012,-3.7014,-3.7015,-3.7022,-3.7025,-3.6998,-3.6998,-3.6998,-3.6998,0,-3.6584,-3.6614,-3.6629,-3.6676,-3.67,-3.6726,-3.6762,-3.6782,-3.68,-3.6825,-3.6863,-3.6899,-3.6939,-3.6951,-3.6968,-3.6996,-3.6997,-3.7006,-3.701,-3.7015,-3.7022,-3.7025,-3.6996,-3.6997,-3.6997,-3.6997,0,0,-3.6573,-3.6637,-3.6642,-3.6663,-3.6711,-3.6735,-3.6764,-3.6803,-3.682,-3.6854,-3.6879,-3.6926,-3.6934,-3.6958,-3.698,-3.6997,-3.701,-3.7004,-3.7005,-3.7004,-3.7043,-3.7036,-3.7039,-3.702,-3.7021,-3.7022,-3.704,0,-3.6585,-3.6637,-3.6666,-3.6706,-3.6734,-3.6761,-3.6787,-3.6819,-3.6844,-3.6872,-3.69,-3.6932,-3.6941,-3.6956,-3.6974,-3.7004,-3.7018,-3.7003,-3.7045,-3.7046,-3.7033,-3.7042,-3.7035,-3.705,-3.7043,-3.7044,-3.7044,0,-3.6606,-3.6639,-3.6681,-3.6726,-3.674,-3.6762,-3.68,-3.6827,-3.6865,-3.6882,-3.6909,-3.6931,-3.6963,-3.6966,-3.7011,-3.7001,-3.702,-3.7037,-3.7039,-3.7043,-3.7045,-3.7047,-3.7056,-3.7058,-3.7049,-3.7048,-3.7048,0,-3.6594,-3.6649,-3.6681,-3.6699,-3.6753,-3.6768,-3.6791,-3.6828,-3.685,-3.6885,-3.6899,-3.6937,-3.6958,-3.6987,-3.7019,-3.7017,-3.7062,-3.7067,-3.7077,-3.7076,-3.7085,-3.7084,-3.7096,-3.7098,-3.7097,-3.7097,-3.7097,0,-3.6604,-3.6629,-3.6677,-3.6697,-3.6726,-3.676,-3.6788,-3.6814,-3.6847,-3.6874,-3.69,-3.6924,-3.6964,-3.6994,-3.7019,-3.7054,-3.7063,-3.7078,-3.7085,-3.7076,-3.7074,-3.7088,-3.7088,-3.7098,-3.7098,-3.7098,-3.7098,0,-3.6595,-3.6628,-3.6665,-3.6713,-3.6725,-3.6745,-3.6786,-3.6808,-3.6834,-3.6867,-3.6877,-3.6919,-3.6955,-3.699,-3.7039,-3.7056,-3.709,-3.7099,-3.7077,-3.7081,-3.7089,-3.7088,-3.7112,-3.7117,-3.7114,-3.7114,-3.7114,0,-3.6599,-3.6619,-3.6669,-3.6688,-3.671,-3.6741,-3.6764,-3.6798,-3.6821,-3.6866,-3.6882,-3.6921,-3.6953,-3.701,-3.7046,-3.7084,-3.7093,-3.7099,-3.7099,-3.709,-3.7093,-3.7091,-3.7094,-3.7098,-3.7098,-3.7098,-3.7097,0,-3.6603,-3.6619,-3.665,-3.6687,-3.6713,-3.6744,-3.6776,-3.6791,-3.6832,-3.6856,-3.6893,-3.6919,-3.6969,-3.7007,-3.7049,-3.7074,-3.7093,-3.7097,-3.7102,-3.7093,-3.7079,-3.7087,-3.7075,-3.7096,-3.7097,-3.7097,-3.7097,-3.7097,-3.6601,-3.662,-3.6658,-3.6693,-3.672,-3.675,-3.6772,-3.6802,-3.6833,-3.6876,-3.6895,-3.6933,-3.6972,-3.703,-3.7056,-3.7087,-3.7091,-3.7097,-3.7099,-3.71,-3.7098,-3.7075,-3.7095,-3.7095,-3.7095,-3.7095,-3.7095,0,-3.6607,-3.6633,-3.6664,-3.6708,-3.6735,-3.675,-3.6786,-3.6808,-3.6841,-3.6875,-3.6907,-3.6951,-3.6988,-3.7027,-3.7067,-3.7084,-3.7094,-3.7094,-3.7093,-3.7098,-3.7092,-3.7084,-3.7085,-3.7085,-3.7085,-3.7085,-3.7085,-3.7085,-3.6613,-3.6646,-3.6666,-3.6714,-3.674,-3.6777,-3.6797,-3.6825,-3.6852,-3.6899,-3.6931,-3.6955,-3.6992,-3.7035,-3.7071,-3.7081,-3.7095,-3.7092,-3.7105,-3.7098,-3.7098,-3.7099,-3.7092,-3.7095,-3.7095,-3.7109,-3.7109,-3.7109]},{"header":{"parameterUnit":"m.s-1","parameterCategory":1,"la1":30.2991,"la2":30.254,"lo1":-89.0895,"lo2":-89.0444,"dy":0.0017,"dx":0.0017,"nx":28,"ny":28,"refTime":"2025-04-06T09:00:00:Z","depth":0,"parameterNumber":3,"parameterNumberName":"V-component_of_WINDS"},"data":[0,0,0,0,0,0,0,0,0,0,0,0,0,0,0,0,0,0,0,0,0,0,0,0,0,0,0,0,0,0,0,0,0,0,0,0,0,0,0,0,0,0,0,0,0,0,0,0,0,0,0,0,0,0,0,0,0,0,8.1608,8.1608,0,8.154,8.154,8.1539,8.1448,8.1446,8.1445,8.1443,8.137,8.137,8.1369,0,0,0,0,0,0,0,0,0,0,0,0,0,8.1658,8.1657,8.1609,8.1608,8.1607,8.1541,8.154,8.1539,8.1448,8.1446,8.1444,8.1443,8.137,8.137,8.1369,0,0,0,0,0,0,0,0,0,0,0,0,0,8.1618,8.1657,8.1609,8.1554,8.1548,8.1541,8.154,8.1538,8.1448,8.1446,8.1444,8.1442,8.1371,8.137,8.1369,8.1409,0,0,8.1367,8.1366,0,0,0,0,0,0,0,0,8.162,8.1616,8.1563,8.1557,8.1551,8.15,8.153,8.1495,8.1449,8.1486,8.1443,8.1441,8.1415,8.1411,8.1403,8.1406,8.1402,8.1366,8.1366,8.1366,8.1365,0,0,0,0,0,0,0,8.1623,8.1618,8.1581,8.1562,8.1555,8.1532,8.1524,8.1523,8.1464,8.1483,8.1476,8.1469,8.1412,8.1404,8.14,8.1401,8.1366,8.1366,8.1365,8.1365,8.1434,8.1437,0,0,0,0,0,0,8.1634,8.1621,8.1584,8.1579,8.1581,8.1533,8.1524,8.1519,8.1464,8.1453,8.1471,8.1465,8.1406,8.1401,8.1397,8.1441,8.1366,8.1365,8.1364,8.1432,8.1435,8.1437,0,0,0,0,0,0,8.1636,8.1632,8.1586,8.1599,8.1591,8.1534,8.153,8.1519,8.1511,8.1455,8.1444,8.1474,8.1404,8.1398,8.1407,8.1437,8.1364,8.1364,8.1429,8.1433,8.1436,8.1528,0,0,0,0,0,0,8.1638,8.1633,8.1648,8.16,8.1591,8.1598,8.1532,8.1519,8.151,8.1501,8.1455,8.1445,8.1402,8.1409,8.1406,8.1434,8.1363,8.1426,8.1431,8.1435,8.1522,8.1534,8.1545,0,0,0,0,0,8.164,8.1676,8.1649,8.1645,8.1609,8.16,8.1595,8.1546,8.1513,8.1527,8.1492,8.1446,8.1434,8.1411,8.1407,8.1435,8.1424,8.143,8.1435,8.1517,8.1532,8.1544,0,0,0,0,0,0,8.1727,8.1668,8.1638,8.166,8.1636,8.1585,8.1601,8.1563,8.1547,8.154,8.1478,8.1468,8.1485,8.1461,8.1435,8.1471,8.1422,8.1427,8.1486,8.15,8.1511,8.1516,8.1362,0,0,0,0,0,8.175,8.1749,8.1697,8.1721,8.171,8.1659,8.1653,8.1617,8.159,8.1579,8.1544,8.1518,8.1508,8.1503,8.1491,8.1519,8.1507,8.1536,8.1548,8.1557,8.1562,8.1575,8.1588,8.1455,8.1455,8.1454,0,0,8.1795,8.1762,8.1765,8.1738,8.1715,8.1715,8.165,8.1653,8.1652,8.1578,8.1585,8.1559,8.1526,8.1545,8.1551,8.1525,8.1596,8.1564,8.1572,8.1571,8.1582,8.1595,8.1606,8.1458,8.1458,8.1457,0,0,8.1877,8.1853,8.187,8.1849,8.1816,8.1782,8.1786,8.1742,8.1722,8.1728,8.1673,8.1671,8.1655,8.1634,8.1621,8.1698,8.1656,8.1696,8.1754,8.1768,8.1779,8.1788,8.1815,8.1826,8.1701,8.1701,8.1701,0,8.1937,8.1935,8.1884,8.189,8.188,8.1815,8.1832,8.1814,8.1779,8.1773,8.1745,8.1725,8.1698,8.1711,8.173,8.1722,8.1725,8.17,8.1782,8.179,8.1798,8.1823,8.1833,8.1706,8.1705,8.1705,8.1704,0,8.2011,8.2011,8.2029,8.1998,8.1989,8.2001,8.1951,8.1949,8.1914,8.1883,8.189,8.1856,8.1836,8.1837,8.1802,8.1846,8.183,8.1793,8.1742,8.1816,8.1839,8.1848,8.1713,8.1711,8.171,8.1709,0,0,8.2145,8.2087,8.2094,8.208,8.204,8.2038,8.2047,8.2029,8.2029,8.2007,8.2012,8.2002,8.1967,8.1953,8.1916,8.1928,8.1992,8.1889,8.1887,8.1909,8.2037,8.2066,8.2078,8.1964,8.1966,8.1967,8.204,0,8.2219,8.2232,8.2187,8.2211,8.221,8.215,8.2158,8.2134,8.2105,8.21,8.2067,8.2061,8.2016,8.2007,8.2017,8.1982,8.2016,8.1976,8.1968,8.1968,8.1978,8.2089,8.2119,8.219,8.2048,8.205,8.2051,0,8.2307,8.2292,8.2317,8.2276,8.2274,8.2282,8.2263,8.2259,8.223,8.2208,8.2194,8.2152,8.2157,8.211,8.2117,8.209,8.2084,8.2067,8.2069,8.2065,8.2014,8.2089,8.2211,8.2222,8.2064,8.2063,8.2062,0,8.2403,8.2388,8.2401,8.2391,8.2344,8.2351,8.2331,8.2301,8.2294,8.2276,8.2271,8.2255,8.2245,8.2233,8.2188,8.2157,8.22,8.2148,8.2181,8.2183,8.2192,8.2192,8.2314,8.2189,8.2189,8.2189,8.2189,0,8.249,8.2508,8.2444,8.2452,8.247,8.2417,8.2436,8.2411,8.2385,8.2386,8.2333,8.2335,8.2275,8.2271,8.2235,8.2246,8.2242,8.2225,8.2215,8.2229,8.2232,8.2224,8.2218,8.2192,8.2191,8.2191,8.219,0,8.26,8.2557,8.2568,8.2523,8.2512,8.2528,8.2489,8.2494,8.2463,8.2466,8.2463,8.2414,8.2406,8.236,8.2341,8.2317,8.2341,8.2321,8.2351,8.2345,8.238,8.2377,8.2501,8.2515,8.2382,8.2383,8.2385,0,8.2658,8.267,8.2628,8.2626,8.2609,8.2606,8.2599,8.2548,8.2543,8.2512,8.2522,8.251,8.2498,8.2489,8.245,8.2436,8.2416,8.246,8.2413,8.2427,8.2416,8.2416,8.2417,8.247,8.2472,8.2473,8.2474,0,8.2766,8.2745,8.2737,8.2723,8.2716,8.2701,8.2684,8.2685,8.2629,8.2625,8.2618,8.2609,8.2591,8.258,8.2559,8.2538,8.2497,8.249,8.2497,8.2511,8.2528,8.2519,8.2378,8.2487,8.2486,8.2485,8.2484,8.2483,8.2852,8.286,8.2832,8.2825,8.2807,8.2792,8.2795,8.2765,8.2758,8.274,8.2711,8.2708,8.2679,8.2648,8.263,8.2627,8.2603,8.2613,8.2615,8.2618,8.2626,8.2529,8.2623,8.2622,8.2622,8.2622,8.2621,0,8.2957,8.2936,8.2931,8.2909,8.2903,8.2867,8.2845,8.2843,8.2842,8.282,8.281,8.2801,8.2791,8.2753,8.2738,8.2743,8.2724,8.2741,8.2739,8.2735,8.2648,8.2644,8.2756,8.2756,8.2756,8.2756,8.2756,8.2756,8.3011,8.3024,8.3,8.3003,8.2982,8.2979,8.2971,8.2956,8.2939,8.2932,8.2924,8.29,8.2871,8.2854,8.2843,8.2832,8.2829,8.2853,8.2835,8.2754,8.2741,8.2729,8.2725,8.2852,8.2853,8.2923,8.2924,8.2924]}]]